timestamp,surface_pressure_avg,surface_temp_avg,battery_voltage,lat,long
2020-04-22 00:09:01+00:00,353.0213,2.08,13.13,47.84626,-54.09684
2020-04-22 00:19:01+00:00,349.0779,2.0,12.81,47.84626,-54.09684
2020-04-22 00:29:01+00:00,347.0463,2.0,12.81,47.84626,-54.09684
2020-04-22 00:39:01+00:00,344.0063,1.97,12.81,47.84626,-54.09684
2020-04-22 00:49:01+00:00,334.7297,1.99,12.81,47.84626,-54.09684
2020-04-22 00:59:01+00:00,324.8813,1.9,12.81,47.84626,-54.09684
2020-04-22 01:09:01+00:00,325.5745,1.9,12.81,47.84626,-54.09684
2020-04-22 01:19:01+00:00,323.968,1.92,12.73,47.84626,-54.09684
2020-04-22 01:29:01+00:00,312.9564,2.0,12.73,47.84626,-54.09684
2020-04-22 01:39:01+00:00,304.5847,2.0,12.73,47.84626,-54.09684
2020-04-22 01:49:01+00:00,306.7614,2.07,12.73,47.84626,-54.09684
2020-04-22 01:59:01+00:00,303.5397,2.08,12.73,47.84626,-54.09684
2020-04-22 02:09:01+00:00,289.4531,2.1,12.73,47.84626,-54.09684
2020-04-22 02:19:01+00:00,278.7346,2.1,12.65,47.84626,-54.09684
2020-04-22 02:29:01+00:00,278.2581,2.1,12.65,47.84626,-54.09684
2020-04-22 02:39:01+00:00,271.4964,2.23,12.65,47.84626,-54.09684
2020-04-22 02:49:01+00:00,254.2597,2.2,12.65,47.84626,-54.09684
2020-04-22 02:59:01+00:00,245.6347,2.15,12.65,47.84626,-54.09684
2020-04-22 03:09:01+00:00,243.6747,2.19,12.65,47.84626,-54.09684
2020-04-22 03:19:01+00:00,236.638,2.2,12.65,47.84626,-54.09684
2020-04-22 03:29:01+00:00,222.0747,2.2,12.65,47.84626,-54.09684
2020-04-22 03:39:01+00:00,214.9615,2.2,12.65,47.84626,-54.09684
2020-04-22 03:49:01+00:00,211.6165,2.22,12.65,47.84626,-54.09684
2020-04-22 03:59:01+00:00,203.8898,2.25,12.65,47.84626,-54.09684
2020-04-22 04:09:01+00:00,198.5498,2.29,12.65,47.84626,-54.09684
2020-04-22 04:19:01+00:00,201.0381,2.3,12.65,47.84626,-54.09684
2020-04-22 04:29:01+00:00,202.9581,2.3,12.65,47.84626,-54.09684
2020-04-22 04:39:01+00:00,198.1297,2.3,12.65,47.84626,-54.09684
2020-04-22 04:49:01+00:00,193.9481,2.3,12.65,47.84626,-54.09684
2020-04-22 04:59:01+00:00,199.2415,2.3,12.65,47.84626,-54.09684
2020-04-22 05:09:01+00:00,203.0831,2.3,12.65,47.84626,-54.09684
2020-04-22 05:19:01+00:00,199.7881,2.3,12.65,47.84626,-54.09684
2020-04-22 05:29:01+00:00,202.7664,2.3,12.65,47.84626,-54.09684
2020-04-22 05:39:01+00:00,207.8565,2.2,12.65,47.84626,-54.09684
2020-04-22 05:49:01+00:00,206.5314,2.11,12.65,47.84626,-54.09684
2020-04-22 05:59:01+00:00,206.0297,2.1,12.65,47.84626,-54.09684
2020-04-22 06:09:01+00:00,210.5281,2.05,12.65,47.84626,-54.09684
2020-04-22 06:19:01+00:00,215.7931,2.1,12.57,47.84626,-54.09684
2020-04-22 06:29:01+00:00,214.1014,2.1,12.57,47.84626,-54.09684
2020-04-22 06:39:01+00:00,213.5081,2.0,12.57,47.84626,-54.09684
2020-04-22 06:49:01+00:00,225.7531,2.0,12.57,47.84626,-54.09684
2020-04-22 06:59:01+00:00,236.3981,1.9,12.57,47.84626,-54.09684
2020-04-22 07:09:01+00:00,229.2597,1.94,12.57,47.84626,-54.09684
2020-04-22 07:19:01+00:00,223.3498,1.98,12.57,47.84626,-54.09684
2020-04-22 07:29:01+00:00,237.0364,1.9,12.57,47.84626,-54.09684
2020-04-22 07:39:01+00:00,246.3364,1.9,12.57,47.84626,-54.09684
2020-04-22 07:49:01+00:00,242.3914,1.9,12.57,47.84626,-54.09684
2020-04-22 07:59:01+00:00,240.9914,1.9,12.57,47.84626,-54.09684
2020-04-22 08:09:01+00:00,253.5631,1.9,12.57,47.84626,-54.09684
2020-04-22 08:19:01+00:00,260.6931,1.9,12.57,47.84626,-54.09684
2020-04-22 08:29:01+00:00,259.5497,1.9,12.57,47.84626,-54.09684
2020-04-22 08:39:01+00:00,266.7897,1.92,12.57,47.84626,-54.09684
2020-04-22 08:49:01+00:00,279.5331,1.95,12.57,47.84626,-54.09684
2020-04-22 08:59:01+00:00,282.928,1.97,12.57,47.84626,-54.09684
2020-04-22 09:09:01+00:00,283.9247,1.98,12.57,47.84626,-54.09684
2020-04-22 09:19:01+00:00,291.8414,1.9,12.81,47.84626,-54.09684
2020-04-22 09:29:01+00:00,300.0013,1.9,12.81,47.84626,-54.09684
2020-04-22 09:39:01+00:00,295.8781,1.9,12.81,47.84626,-54.09684
2020-04-22 09:49:01+00:00,298.898,1.92,12.81,47.84626,-54.09684
2020-04-22 09:59:01+00:00,313.358,1.9,12.81,47.84626,-54.09684
2020-04-22 10:09:01+00:00,326.483,1.8,12.81,47.84626,-54.09684
2020-04-22 10:19:01+00:00,327.5013,1.9,14.0,47.84626,-54.09684
2020-04-22 10:29:01+00:00,333.3547,1.88,14.0,47.84626,-54.09684
2020-04-22 10:39:01+00:00,344.8596,1.7,14.0,47.84626,-54.09684
2020-04-22 10:49:01+00:00,352.5563,1.69,14.0,47.84626,-54.09684
2020-04-22 10:59:01+00:00,355.2113,1.7,14.0,47.84626,-54.09684
2020-04-22 11:09:01+00:00,357.5079,1.7,14.0,47.84626,-54.09684
2020-04-22 11:19:01+00:00,352.25800000000015,1.7,14.64,47.84626,-54.09684
2020-04-22 11:29:01+00:00,341.9079,1.79,14.64,47.84626,-54.09684
2020-04-22 11:39:01+00:00,343.3197,1.8,14.64,47.84626,-54.09684
2020-04-22 11:49:01+00:00,353.8696,1.79,14.64,47.84626,-54.09684
2020-04-22 11:59:01+00:00,356.3064,1.79,14.64,47.84626,-54.09684
2020-04-22 12:09:01+00:00,360.333,1.8,14.64,47.84626,-54.09684
2020-04-22 12:19:01+00:00,361.9963,1.8,14.64,47.84626,-54.09684
2020-04-22 12:29:01+00:00,357.2679,1.8,14.64,47.84626,-54.09684
2020-04-22 12:39:01+00:00,357.793,1.79,14.64,47.84626,-54.09684
2020-04-22 12:49:01+00:00,358.6895,1.75,14.64,47.84626,-54.09684
2020-04-22 12:59:01+00:00,345.0563,1.8,14.64,47.84626,-54.09684
2020-04-22 13:09:01+00:00,326.3397,1.9,14.64,47.84626,-54.09684
2020-04-22 13:19:01+00:00,323.298,1.8,14.64,47.84626,-54.09684
2020-04-22 13:29:01+00:00,316.858,1.87,14.64,47.84626,-54.09684
2020-04-22 13:39:01+00:00,302.2596,1.99,14.64,47.84626,-54.09684
2020-04-22 13:49:01+00:00,301.0913,2.0,14.64,47.84626,-54.09684
2020-04-22 13:59:01+00:00,304.5381,1.8,14.64,47.84626,-54.09684
2020-04-22 14:09:01+00:00,296.5397,1.78,14.64,47.84626,-54.09684
2020-04-22 14:19:01+00:00,284.2664,1.9,14.64,47.84626,-54.09684
2020-04-22 14:29:01+00:00,282.8314,1.9,14.64,47.84626,-54.09684
2020-04-22 14:39:01+00:00,282.668,1.8,14.64,47.84626,-54.09684
2020-04-22 14:49:01+00:00,267.5765,1.8,14.64,47.84626,-54.09684
2020-04-22 14:59:01+00:00,245.0847,1.95,14.64,47.84626,-54.09684
2020-04-22 15:09:01+00:00,242.4564,1.9,14.64,47.84626,-54.09684
2020-04-22 15:19:01+00:00,237.8914,1.9,14.48,47.84626,-54.09684
2020-04-22 15:29:01+00:00,225.2364,2.0,14.48,47.84626,-54.09684
2020-04-22 15:39:01+00:00,219.2332,2.1,14.48,47.84626,-54.09684
2020-04-22 15:49:01+00:00,226.9064,2.17,14.48,47.84626,-54.09684
2020-04-22 15:59:01+00:00,220.5265,2.2,14.48,47.84626,-54.09684
2020-04-22 16:09:01+00:00,209.5948,2.2,14.48,47.84626,-54.09684
2020-04-22 16:19:01+00:00,209.5081,2.19,14.4,47.84626,-54.09684
2020-04-22 16:29:01+00:00,202.9431,2.12,14.4,47.84626,-54.09684
2020-04-22 16:39:01+00:00,193.4515,2.2,14.4,47.84626,-54.09684
2020-04-22 16:49:01+00:00,196.2098,2.2,14.4,47.84626,-54.09684
2020-04-22 16:59:01+00:00,197.0581,2.2,14.4,47.84626,-54.09684
2020-04-22 17:09:01+00:00,188.2648,2.2,14.4,47.84626,-54.09684
2020-04-22 17:19:01+00:00,185.0098,2.27,14.24,47.84626,-54.09684
2020-04-22 17:29:01+00:00,194.1381,2.3,14.24,47.84626,-54.09684
2020-04-22 17:39:01+00:00,197.9048,2.3,14.24,47.84626,-54.09684
2020-04-22 17:49:01+00:00,194.0465,2.3,14.24,47.84626,-54.09684
2020-04-22 17:59:01+00:00,199.4848,2.36,14.24,47.84626,-54.09684
2020-04-22 18:09:01+00:00,208.7515,2.35,14.24,47.84626,-54.09684
2020-04-22 18:19:01+00:00,213.8898,2.31,14.08,47.84626,-54.09684
2020-04-22 18:29:01+00:00,215.3431,2.31,14.08,47.84626,-54.09684
2020-04-22 18:39:01+00:00,220.0364,2.3,14.08,47.84626,-54.09684
2020-04-22 18:49:01+00:00,224.2114,2.3,14.08,47.84626,-54.09684
2020-04-22 18:59:01+00:00,228.3798,2.36,14.08,47.84626,-54.09684
2020-04-22 19:09:01+00:00,232.2747,2.3,14.08,47.84626,-54.09684
2020-04-22 19:19:01+00:00,232.9698,2.38,14.0,47.84626,-54.09684
2020-04-22 19:29:01+00:00,233.3414,2.38,14.0,47.84626,-54.09684
2020-04-22 19:39:01+00:00,237.5948,2.3,14.0,47.84626,-54.09684
2020-04-22 19:49:01+00:00,241.4181,2.23,14.0,47.84626,-54.09684
2020-04-22 19:59:01+00:00,241.3164,2.35,14.0,47.84626,-54.09684
2020-04-22 20:09:01+00:00,245.0781,2.45,14.0,47.84626,-54.09684
2020-04-22 20:19:01+00:00,253.7348,2.5,13.84,47.84626,-54.09684
2020-04-22 20:29:01+00:00,263.9631,2.59,13.84,47.84626,-54.09684
2020-04-22 20:39:01+00:00,268.0264,2.6,13.84,47.84626,-54.09684
2020-04-22 20:49:01+00:00,277.8248,2.67,13.84,47.84626,-54.09684
2020-04-22 20:59:01+00:00,283.993,2.7,13.84,47.84626,-54.09684
2020-04-22 21:09:01+00:00,292.4664,2.73,13.84,47.84626,-54.09684
2020-04-22 21:19:01+00:00,295.0347,2.78,13.68,47.84626,-54.09684
2020-04-22 21:29:01+00:00,307.3997,2.79,13.68,47.84626,-54.09684
2020-04-22 21:39:01+00:00,308.1513,2.8,13.68,47.84626,-54.09684
2020-04-22 21:49:01+00:00,307.1464,2.8,13.68,47.84626,-54.09684
2020-04-22 21:59:01+00:00,317.373,2.8,13.68,47.84626,-54.09684
2020-04-22 22:09:01+00:00,332.1597,2.8,13.68,47.84626,-54.09684
2020-04-22 22:19:01+00:00,336.9062,2.8,13.44,47.84626,-54.09684
2020-04-22 22:29:01+00:00,339.2113,2.8,13.44,47.84626,-54.09684
2020-04-22 22:39:01+00:00,352.61800000000005,2.8,13.44,47.84626,-54.09684
2020-04-22 22:49:01+00:00,358.7697,2.8,13.44,47.84626,-54.09684
2020-04-22 22:59:01+00:00,351.2312,2.8,13.44,47.84626,-54.09684
2020-04-22 23:09:01+00:00,360.4695,2.83,13.44,47.84626,-54.09684
2020-04-22 23:19:01+00:00,367.253,2.86,13.05,47.84626,-54.09684
2020-04-22 23:29:01+00:00,366.2012,2.86,13.05,47.84626,-54.09684
2020-04-22 23:39:01+00:00,368.7046,2.86,13.05,47.84626,-54.09684
2020-04-22 23:49:01+00:00,373.55300000000005,2.84,13.05,47.84626,-54.09684
2020-04-22 23:59:01+00:00,381.5912,2.81,13.05,47.84626,-54.09684
